Showing default

KANOPUS-V-IK, 42825

Orbit data source: Space-Track

KANOPUS-V-IK, 42825 is a payload satellite owned by VNIIEM (CIS) in SSO that was launched on Fri, 14 Jul 2017 UTC via a SOYUZ-2-1A launch vehicle from the Tyuratam Missile And Space Complex (TTMTR). Payloads include a variety of satellites, spacecraft, and rockets equipped with specific instruments for various scientific and technological missions. These include communications satellites like Starlink; space stations such as the ISS; scientific satellites like the Hubble; Earth observation satellites from companies like Planet Labs, Umbra, and HawkEye 360; GPS; miniature CubeSats for education and research; and military/defense satellites.

Loading next visibility...
KANOPUS-V-IK details
Identifier
42825, 2017-042A
Orbit
SSO
Last TLE update7 hours ago
Origin
Flag of CISVNIIEM (CIS)
ManufacturerVNIIEM
MissionOperational Civil Imaging
Bus & MotorKANOPUS, Unknown motor
Mass550 kg wet, 550 kg dry
Launch date (UTC)
2017-07-14 (7 years ago)
Launch vehicle
SOYUZ-2-1A
Launch site
Tyuratam Missile And Space Complex (TTMTR)
Object type
Payload
Rocket body
Debris
Shape & HBRBox + 2 Pan, 6 m
Radar Cross Section1.665 m², Large (>1 m²)

Expand to show TLE details & history

TLE from 7 hours ago
0 KANOPUS-V-IK
1 42825U 17042A   24361.12834033  .00008301  00000-0  36470-3 0  9990
2 42825  97.3883 265.6256 0001749  93.1175 267.0261 15.22162326413484
Epoch: 2024-12-26T03:04Z
Definitive object data (Epoch: 2024-12-26T03:04:48.604Z)
Latitude-0.00007°
Longitude124.31091°
Altitude502.476 km
Speed7.613 km/s
True Right ascension17h 42m 30s
True Declination0° 00' 00"
Sunlit
Object was in daylight at TLE epoch
Visualization TLE readout
Latitude-4.36742°
Longitude-55.96201°
Altitude503.115 km
Speed7.612 km/s
Apparent Right ascension02h 44m 22s
Apparent Declination-37° 40' 35"
Sunlit
Object is in full shadow
Visualization observer readout
Local Sidereal Time09:33:00
Azimuth244.939° WSW
Elevation-31.337°
Doppler factor1
Orbital elements
Apogee altitude497.484 km
Perigee altitude495.08 km
Semi-major axis6,874.419 km
Eccentricity0.0001749
Inclination97.3883°
RAAN265.6256°
Arg. of periapsis93.1175°
True anomaly267.00609°
Mean anomaly267.0261°
Eccentric anomaly267.01609°
Mean motion3.80793 °/min
BSTAR0.0003647
Orbital period94.54 mins
Loading maneuver chart data...

KANOPUS-V-IK Visibility forecast

Observer location: undefined°, undefined

Span
Click to sort rows by Start time (UTC) header in descending order
Start Az.
Max El. time (UTC)
Max El. Az.
Max El.
End time (UTC)
End Az.
6 mins2024-12-26 17:24:52.054Z135.615° SSE2024-12-26 17:27:52.054Z67.276° ENE29.576°2024-12-26 17:30:52.054Z7.805° NNE
5 mins2024-12-27 06:28:52.054Z31.081° NE2024-12-27 06:30:52.054Z96.347° ESE38.426°2024-12-27 06:33:52.054Z175.061° S
|